Lawrence, MA

1:12 AM EDT on October 20, 2017 (GMT -0400)
Lawrence Municipal

Weather History for KLWM - May, 2014

Change the Weather History Date:

Sunday, May 18, 2014

  Actual Average Record
Temperature  
Mean Temperature 57 °F -  
Max Temperature 69 °F 70 °F 95 °F (2017)
Min Temperature 48 °F 48 °F 32 °F (2002)
Degree Days  
Heating Degree Days 8    
Growing Degree Days 7 (Base 50)    
Moisture  
Dew Point 38 °F    
Average Humidity 47    
Maximum Humidity 63    
Minimum Humidity 28    
Precipitation  
Precipitation 0.00 in - - ()
Sea Level Pressure  
Sea Level Pressure 30.07 in    
Wind  
Wind Speed 5 mph (NW)    
Max Wind Speed 10 mph    
Max Gust Speed 25 mph    
Visibility 10 miles    
Events Rain    
Averages and records for this station are not official NWS values.
T = Trace of Precipitation, MM = Missing Value Source: NWS Daily Summary

Daily Weather History Graph

Daily Weather History Graph

Search for Another Location

Airport or City:

Trip Planner

Search our weather history database for the weather conditions in past years. The results will help you decide how hot, cold, wet, or windy it might be!

Date:

Astronomy

May. 18, 2014 Rise Set
Actual Time 5:19 AM EDT 8:03 PM EDT
Civil Twilight 4:46 AM EDT 8:36 PM EDT
Nautical Twilight 4:05 AM EDT 9:17 PM EDT
Astronomical Twilight 3:17 AM EDT 10:05 PM EDT
Moon 11:47 PM EDT (5/18) 9:05 AM EDT (5/18)
Length of Visible Light 15h 49m
Length of Day
14h 44m
Waning Gibbous, 81% of the Moon is Illuminated
May 18
Waning Gibbous
May 21
Last Quarter
May 28
New
Jun 5
First Quarter
Jun 13
Full

Hourly Weather History & Observations

Time (EDT) Temp. Dew Point Humidity Pressure Visibility Wind Dir Wind Speed Gust Speed Precip Events Conditions
12:54 AM 53.1 °F 34.0 °F 48% 30.09 in 10.0 mi West 3.5 mph - N/A   Partly Cloudy
1:54 AM 52.0 °F 35.1 °F 53% 30.07 in 10.0 mi West 5.8 mph - N/A   Clear
2:54 AM 51.1 °F 35.1 °F 54% 30.08 in 10.0 mi WNW 3.5 mph - N/A   Clear
3:54 AM 48.0 °F 36.0 °F 63% 30.09 in 10.0 mi WSW 4.6 mph - N/A   Clear
4:54 AM 50.0 °F 37.0 °F 61% 30.10 in 10.0 mi Calm Calm - N/A   Mostly Cloudy
5:27 AM 50.0 °F 37.0 °F 61% 30.10 in 10.0 mi NW 3.5 mph - N/A   Scattered Clouds
5:54 AM 51.1 °F 37.9 °F 61% 30.11 in 10.0 mi WNW 3.5 mph - N/A   Scattered Clouds
6:54 AM 53.1 °F 39.0 °F 59% 30.12 in 10.0 mi NW 3.5 mph - N/A   Clear
7:54 AM 55.0 °F 41.0 °F 59% 30.12 in 10.0 mi NNW 4.6 mph - N/A   Clear
8:54 AM 59.0 °F 43.0 °F 55% 30.12 in 10.0 mi Variable 4.6 mph - N/A   Scattered Clouds
9:54 AM 62.1 °F 42.1 °F 48% 30.11 in 10.0 mi WNW 8.1 mph - N/A   Clear
10:54 AM 64.0 °F 41.0 °F 43% 30.10 in 10.0 mi NNW 10.4 mph - N/A   Scattered Clouds
11:54 AM 64.9 °F 42.1 °F 43% 30.09 in 10.0 mi Variable 4.6 mph 16.1 mph N/A   Scattered Clouds
12:54 PM 64.9 °F 39.9 °F 40% 30.07 in 10.0 mi NW 5.8 mph - N/A   Scattered Clouds
1:54 PM 66.9 °F 37.9 °F 34% 30.06 in 10.0 mi West 9.2 mph - N/A   Overcast
2:54 PM 66.9 °F 35.1 °F 31% 30.04 in 10.0 mi NW 5.8 mph 17.3 mph N/A   Overcast
3:54 PM 66.0 °F 32.0 °F 28% 30.02 in 10.0 mi North 6.9 mph - N/A   Mostly Cloudy
4:54 PM 66.9 °F 39.9 °F 37% 30.02 in 10.0 mi Variable 3.5 mph - N/A   Mostly Cloudy
5:54 PM 66.9 °F 39.9 °F 37% 30.02 in 10.0 mi East 6.9 mph - N/A   Overcast
6:54 PM 64.0 °F 43.0 °F 46% 30.03 in 10.0 mi ESE 4.6 mph - 0.00 in   Overcast
7:54 PM 62.1 °F 43.0 °F 50% 30.04 in 10.0 mi East 6.9 mph - 0.00 in   Overcast
8:54 PM 61.0 °F 35.1 °F 38% 30.05 in 10.0 mi North 6.9 mph 25.3 mph 0.00 in Rain Light Rain
9:54 PM 60.1 °F 39.0 °F 46% 30.06 in 10.0 mi North 10.4 mph - 0.00 in   Overcast
10:54 PM 59.0 °F 33.1 °F 38% 30.06 in 10.0 mi NW 4.6 mph - N/A   Overcast
11:54 PM 57.9 °F 28.9 °F 33% 30.07 in 10.0 mi NNW 8.1 mph 17.3 mph 0.00 in   Overcast